Location: Kumla
(59.1265°N, 15.1401°E)
Time: 15:53:23
(UTC+01:00)

Tiros 1 despin weight - All Passes

Search period start: 03 December 2023 00:00
Search period end: 13 December 2023 00:00
Orbit: 583 x 628 km, 48.2° (Epoch: 28 November)

Date Brightness Start Highest point End Pass type
(mag) Time Alt. Az. Time Alt. Az. Time Alt. Az.
03 Dec - 19:44:54 10° SSW 19:47:20 15° SSE 19:49:47 10° SE visible
03 Dec - 21:24:22 10° SW 21:27:30 20° S 21:30:40 10° SE night (unlit)
03 Dec - 23:05:16 10° SW 23:07:41 15° SSW 23:10:07 10° SSE night (unlit)
04 Dec - 19:56:21 10° SSW 19:59:14 17° SSE 20:02:08 10° SE visible
04 Dec - 21:36:23 10° SW 21:39:28 19° S 21:42:32 10° SE night (unlit)
04 Dec - 23:18:07 10° SW 23:19:33 11° SSW 23:20:59 10° S night (unlit)
05 Dec - 18:29:23 10° S 18:31:04 12° SSE 18:32:45 10° SE visible
05 Dec - 20:08:05 10° SW 20:11:10 19° S 20:14:16 10° SE visible
05 Dec - 21:48:33 10° SW 21:51:23 17° SSW 21:54:13 10° SSE night (unlit)
06 Dec - 18:40:24 10° SSW 18:42:55 15° SSE 18:45:26 10° SE visible
06 Dec - 20:19:57 10° SW 20:23:06 20° S 20:26:15 10° SE visible
06 Dec - 22:00:56 10° SW 22:03:16 14° SSW 22:05:35 10° SSE night (unlit)
07 Dec - 18:51:52 10° SSW 18:54:48 18° SSE 18:57:42 10° SE visible
07 Dec - 20:31:58 10° SW 20:35:01 19° S 20:38:03 10° SE visible
07 Dec - 22:13:54 10° SW 22:15:05 11° SSW 22:16:15 10° SSW night (unlit)
08 Dec - 17:24:44 10° S 17:26:35 12° SSE 17:28:25 10° SE visible
08 Dec - 19:03:35 10° SW 19:06:41 19° S 19:09:48 10° SE visible
08 Dec - 20:44:08 10° SW 20:46:54 17° SSW 20:49:41 10° SSE visible
09 Dec - 17:35:49 10° SSW 17:38:24 16° SSE 17:40:59 10° SE visible
09 Dec - 19:15:27 10° SW 19:18:35 20° S 19:21:44 10° SE visible
09 Dec - 20:56:31 10° SW 20:58:44 14° SSW 21:00:57 10° S visible
10 Dec - 17:47:17 10° SSW 17:50:15 18° S 17:53:13 10° SE visible
10 Dec - 19:27:27 10° SW 19:30:28 18° S 19:33:29 10° SE visible
10 Dec - 21:09:40 10° SW 21:10:31 10° SSW 21:11:22 10° SSW night (unlit)
11 Dec - 16:20:00 10° S 16:21:59 13° SSE 16:23:58 10° SE visible
11 Dec - 17:58:59 10° SW 18:02:07 19° S 18:05:14 10° SE visible
11 Dec - 19:39:35 10° SW 19:42:19 16° SSW 19:45:02 10° SSE visible
12 Dec - 16:31:07 10° SSW 16:33:47 16° SSE 16:36:26 10° SE visible
12 Dec - 18:10:50 10° SW 18:13:58 20° S 18:17:07 10° SE visible
12 Dec - 19:52:00 10° SW 19:54:07 13° SSW 19:56:14 10° S visible
